THOR ABLESTAR DEB, 1504

Orbit data source: Space-Track

THOR ABLESTAR DEB, 1504 is space debris in LEO originally from a launch on Fri, 13 Aug 1965 UTC launched from the Air Force Western Test Range (AFWTR). Debris objects in space refer to the collection of defunct objects orbiting the Earth. Examples of debris include non-operational satellites, rocket bodies, and fragments generated from explosions, collisions, or faulty payload assembly.

Loading next visibility...
Identifier
1504, 1965-065A
Orbit
LEO
Country
Flag of USUS
Related business
Manufacturer
NRL
Mission
Spacecraft
Bus & Motor
Unknown
Mass
Unknown
Launch date (UTC)
1965-08-13 (61 years ago)
Launch vehicle
Unknown
Launch site
Air Force Western Test Range (AFWTR)
Object type
Payload
Rocket body
Debris
Shape & HBR
Unknown shape, 0.1 m
Radar Cross Section
Small (<0.1 m²)

Expand to show TLE details & history
Last TLE update: 10 hours ago

TLE from 10 hours ago
0 THOR ABLESTAR DEB
1 01504U 65065A   26112.30541269  .00000193  00000-0  33128-3 0  9997
2 01504  89.9613 241.8488 0065787  18.5506   8.8860 13.40387642960228
Epoch: 2026-04-22T07:19Z
TLE epoch observation values (Epoch: 2026-04-22T07:19:47.656Z)
Latitude
27.5918°
Longitude
-78.44839°
Altitude
1,062.604 km
Speed
7.347 km/s
True Right ascension
16h 07m 28s
True Declination
27° 27' 24"
Sunlit
Object was in full shadow at epoch
Visualization orbit readout
Latitude
Unknown
Longitude
Unknown
Altitude
Unknown
Speed
Unknown
Apparent Right ascension
Unknown
Apparent Declination
Unknown
Sunlit
N/A
Visualization observer readout
Local Sidereal Time
00:07:53
Azimuth
Unknown
Elevation
Unknown
Doppler factor
Unknown
Orbital elements
Apogee altitude
1,154.128 km
Perigee altitude
1,055.671 km
Semi-major axis
7,483.036 km
Eccentricity
0.00658
Inclination
89.9613°
RAAN
241.8488°
Arg. of periapsis
18.5506°
True anomaly
9.0034°
Mean anomaly
8.886°
Eccentric anomaly
8.94461°
Mean motion
3.35294 °/min
Orbital period
107.37 mins
BSTAR
0.00033128
Loading maneuver chart data...
Computing Atmospheric mass density...
Loading historical data...
Loading historical data...
Loading historical data...
Loading historical data...
Loading historical data...
Loading historical data...
Loading historical data...

Documentation

Showing up to 5 results
|